Location: Gdynia
(54.5193°N, 18.5395°E)
Time: 07:20:00
(UTC+02:00)

ISS - Visible Passes

Search period start: 27 May 2018 00:00
Search period end: 06 June 2018 00:00
Orbit: 402 x 407 km, 51.6° (Epoch: 27 May)

Date Brightness Start Highest point End Pass type
(mag) Time Alt. Az. Time Alt. Az. Time Alt. Az.
27 May -3.1 00:23:01 10° W 00:26:00 32° SSW 00:26:26 31° S visible
27 May -3.6 21:54:31 10° WSW 21:57:42 49° S 22:00:53 10° E visible
27 May -3.4 23:30:49 10° W 23:33:55 40° SSW 23:35:44 20° SE visible
28 May -1.5 01:07:46 10° WSW 01:08:20 12° WSW 01:08:20 12° WSW visible
28 May -3.5 22:38:38 10° W 22:41:48 47° S 22:44:58 10° ESE visible
29 May -2.4 00:15:14 10° W 00:17:42 22° SSW 00:17:42 22° SSW visible
29 May -2.8 23:22:53 10° W 23:25:47 29° SSW 23:27:06 22° SSE visible
30 May -3.1 22:30:37 10° W 22:33:41 37° SSW 22:36:31 11° SE visible
31 May -1.7 00:07:47 10° WSW 00:09:09 14° SW 00:09:09 14° SW visible
31 May -2.2 23:15:05 10° WSW 23:17:32 20° SSW 23:18:35 17° S visible
01 Jun -2.6 22:22:39 10° W 22:25:27 26° SSW 22:28:03 11° SSE visible
02 Jun -1.5 23:07:47 10° WSW 23:09:08 12° SW 23:10:11 11° SSW visible
03 Jun -1.9 22:14:51 10° WSW 22:17:06 17° SSW 22:19:22 10° SSE visible
05 Jun -1.3 22:08:01 10° SW 22:08:36 10° SW 22:09:12 10° SSW visible
